Year,Month,Day,Hour,Minute,Value (Times are PST for temperature in C)
2009,06,02,00,00,18.10
2009,06,02,00,01,18.10
2009,06,02,00,02,17.90
2009,06,02,00,03,17.90
2009,06,02,00,04,17.80
2009,06,02,00,05,17.70
2009,06,02,00,06,17.60
2009,06,02,00,07,17.50
2009,06,02,00,08,17.50
2009,06,02,00,09,17.40
2009,06,02,00,10,17.40
2009,06,02,00,11,17.30
2009,06,02,00,12,17.30
2009,06,02,00,13,17.30
2009,06,02,00,14,17.30
2009,06,02,00,15,17.30
2009,06,02,00,16,17.30
2009,06,02,00,17,17.30
2009,06,02,00,18,17.30
2009,06,02,00,19,17.30
2009,06,02,00,20,17.30
2009,06,02,00,21,17.30
2009,06,02,00,22,17.30
2009,06,02,00,23,17.30
2009,06,02,00,24,17.30
2009,06,02,00,25,17.30
2009,06,02,00,26,17.30
2009,06,02,00,27,17.30
2009,06,02,00,28,17.30
2009,06,02,00,29,17.30
2009,06,02,00,30,17.30
2009,06,02,00,31,17.30
2009,06,02,00,32,17.30
2009,06,02,00,33,17.30
2009,06,02,00,34,17.30
2009,06,02,00,35,17.30
2009,06,02,00,36,17.30
2009,06,02,00,37,17.30
2009,06,02,00,38,17.30
2009,06,02,00,39,17.30
2009,06,02,00,40,17.30
2009,06,02,00,41,17.30
2009,06,02,00,42,17.30
2009,06,02,00,43,17.30
2009,06,02,00,44,17.30
2009,06,02,00,45,17.30
2009,06,02,00,46,17.30
2009,06,02,00,47,17.30
2009,06,02,00,48,17.30
2009,06,02,00,49,17.30
2009,06,02,00,50,17.30
2009,06,02,00,51,17.30
2009,06,02,00,52,17.30
2009,06,02,00,53,17.30
2009,06,02,00,54,17.30
2009,06,02,00,55,17.30
2009,06,02,00,56,17.30
2009,06,02,00,57,17.30
2009,06,02,00,58,17.30
2009,06,02,00,59,17.30
2009,06,02,01,00,17.30
2009,06,02,01,01,17.30
2009,06,02,01,02,17.30
2009,06,02,01,03,17.30
2009,06,02,01,04,17.30
2009,06,02,01,05,17.30
2009,06,02,01,06,17.40
2009,06,02,01,07,17.40
2009,06,02,01,08,17.40
2009,06,02,01,09,17.40
2009,06,02,01,10,17.50
2009,06,02,01,11,17.50
2009,06,02,01,12,17.60
2009,06,02,01,13,17.60
2009,06,02,01,14,17.70
2009,06,02,01,15,17.70
2009,06,02,01,16,17.70
2009,06,02,01,17,17.70
2009,06,02,01,18,17.80
2009,06,02,01,19,17.80
2009,06,02,01,20,17.80
2009,06,02,01,21,17.80
2009,06,02,01,22,17.80
2009,06,02,01,23,17.80
2009,06,02,01,24,17.80
2009,06,02,01,25,17.80
2009,06,02,01,26,17.70
2009,06,02,01,27,17.70
2009,06,02,01,28,17.70
2009,06,02,01,29,17.70
2009,06,02,01,30,17.70
2009,06,02,01,31,17.70
2009,06,02,01,32,17.70
2009,06,02,01,33,17.60
2009,06,02,01,34,17.60
2009,06,02,01,35,17.60
2009,06,02,01,36,17.60
2009,06,02,01,37,17.60
2009,06,02,01,38,17.60
2009,06,02,01,39,17.60
2009,06,02,01,40,17.50
2009,06,02,01,41,17.50
2009,06,02,01,42,17.50
2009,06,02,01,43,17.50
2009,06,02,01,44,17.50
2009,06,02,01,45,17.50
2009,06,02,01,46,17.40
2009,06,02,01,47,17.40
2009,06,02,01,48,17.30
2009,06,02,01,49,17.30
2009,06,02,01,50,17.30
2009,06,02,01,51,17.30
2009,06,02,01,52,17.20
2009,06,02,01,53,17.20
2009,06,02,01,54,17.10
2009,06,02,01,55,17.00
2009,06,02,01,56,17.00
2009,06,02,01,57,16.90
2009,06,02,01,58,16.90
2009,06,02,01,59,16.80
2009,06,02,02,00,16.80
2009,06,02,02,01,16.70
2009,06,02,02,02,16.70
2009,06,02,02,03,16.70
2009,06,02,02,04,16.60
2009,06,02,02,05,16.60
2009,06,02,02,06,16.50
2009,06,02,02,07,16.40
2009,06,02,02,08,16.40
2009,06,02,02,09,16.40
2009,06,02,02,10,16.40
2009,06,02,02,11,16.40
2009,06,02,02,12,16.40
2009,06,02,02,13,16.30
2009,06,02,02,14,16.30
2009,06,02,02,15,16.30
2009,06,02,02,16,16.30
2009,06,02,02,17,16.30
2009,06,02,02,18,16.30
2009,06,02,02,19,16.30
2009,06,02,02,20,16.20
2009,06,02,02,21,16.20
2009,06,02,02,22,16.20
2009,06,02,02,23,16.10
2009,06,02,02,24,16.10
2009,06,02,02,25,16.00
2009,06,02,02,26,15.90
2009,06,02,02,27,15.90
2009,06,02,02,28,15.80
2009,06,02,02,29,15.80
2009,06,02,02,30,15.80
2009,06,02,02,31,15.70
2009,06,02,02,32,15.70
2009,06,02,02,33,15.60
2009,06,02,02,34,15.60
2009,06,02,02,35,15.60
2009,06,02,02,36,15.50
2009,06,02,02,37,15.50
2009,06,02,02,38,15.50
2009,06,02,02,39,15.50
2009,06,02,02,40,15.50
2009,06,02,02,41,15.50
2009,06,02,02,42,15.50
2009,06,02,02,43,15.60
2009,06,02,02,44,15.60
2009,06,02,02,45,15.60
2009,06,02,02,46,15.60
2009,06,02,02,47,15.70
2009,06,02,02,48,15.70
2009,06,02,02,49,15.70
2009,06,02,02,50,15.70
2009,06,02,02,51,15.70
2009,06,02,02,52,15.80
2009,06,02,02,53,15.80
2009,06,02,02,54,15.80
2009,06,02,02,55,15.80
2009,06,02,02,56,15.80
2009,06,02,02,57,15.80
2009,06,02,02,58,15.80
2009,06,02,02,59,15.70
2009,06,02,03,00,15.70
2009,06,02,03,01,15.60
2009,06,02,03,02,15.60
2009,06,02,03,03,15.60
2009,06,02,03,04,15.60
2009,06,02,03,05,15.50
2009,06,02,03,06,15.50
2009,06,02,03,07,15.50
2009,06,02,03,08,15.50
2009,06,02,03,09,15.50
2009,06,02,03,10,15.50
2009,06,02,03,11,15.60
2009,06,02,03,12,15.60
2009,06,02,03,13,15.70
2009,06,02,03,14,15.80
2009,06,02,03,15,15.80
2009,06,02,03,16,15.80
2009,06,02,03,17,15.80
2009,06,02,03,18,15.80
2009,06,02,03,19,15.80
2009,06,02,03,20,15.80
2009,06,02,03,21,15.80
2009,06,02,03,22,15.80
2009,06,02,03,23,15.80
2009,06,02,03,24,15.80
2009,06,02,03,25,15.80
2009,06,02,03,26,15.70
2009,06,02,03,27,15.70
2009,06,02,03,28,15.70
2009,06,02,03,29,15.70
2009,06,02,03,30,15.70
2009,06,02,03,31,15.70
2009,06,02,03,32,15.70
2009,06,02,03,33,15.70
2009,06,02,03,34,15.70
2009,06,02,03,35,15.80
2009,06,02,03,36,15.80
2009,06,02,03,37,15.80
2009,06,02,03,38,15.90
2009,06,02,03,39,16.00
2009,06,02,03,40,16.10
2009,06,02,03,41,16.20
2009,06,02,03,42,16.20
2009,06,02,03,43,16.30
2009,06,02,03,44,16.30
2009,06,02,03,45,16.40
2009,06,02,03,46,16.40
2009,06,02,03,47,16.40
2009,06,02,03,48,16.50
2009,06,02,03,49,16.60
2009,06,02,03,50,16.70
2009,06,02,03,51,16.70
2009,06,02,03,52,16.70
2009,06,02,03,53,16.70
2009,06,02,03,54,16.70
2009,06,02,03,55,16.70
2009,06,02,03,56,16.70
2009,06,02,03,57,16.50
2009,06,02,03,58,16.40
2009,06,02,03,59,16.30
2009,06,02,04,00,16.20
2009,06,02,04,01,16.10
2009,06,02,04,02,16.00
2009,06,02,04,03,15.90
2009,06,02,04,04,15.80
2009,06,02,04,05,15.70
2009,06,02,04,06,15.60
2009,06,02,04,07,15.60
2009,06,02,04,08,15.50
2009,06,02,04,09,15.50
2009,06,02,04,10,15.40
2009,06,02,04,11,15.40
2009,06,02,04,12,15.30
2009,06,02,04,13,15.30
2009,06,02,04,14,15.30
2009,06,02,04,15,15.20
2009,06,02,04,16,15.20
2009,06,02,04,17,15.10
2009,06,02,04,18,15.10
2009,06,02,04,19,15.00
2009,06,02,04,20,14.90
2009,06,02,04,21,14.90
2009,06,02,04,22,14.80
2009,06,02,04,23,14.80
2009,06,02,04,24,14.70
2009,06,02,04,25,14.70
2009,06,02,04,26,14.60
2009,06,02,04,27,14.50
2009,06,02,04,28,14.50
2009,06,02,04,29,14.40
2009,06,02,04,30,14.30
2009,06,02,04,31,14.20
2009,06,02,04,32,14.20
2009,06,02,04,33,14.20
2009,06,02,04,34,14.10
2009,06,02,04,35,14.10
2009,06,02,04,36,14.10
2009,06,02,04,37,14.10
2009,06,02,04,38,14.10
2009,06,02,04,39,14.20
2009,06,02,04,40,14.20
2009,06,02,04,41,14.20
2009,06,02,04,42,14.20
2009,06,02,04,43,14.30
2009,06,02,04,44,14.30
2009,06,02,04,45,14.30
2009,06,02,04,46,14.40
2009,06,02,04,47,14.40
2009,06,02,04,48,14.40
2009,06,02,04,49,14.40
2009,06,02,04,50,14.40
2009,06,02,04,51,14.40
2009,06,02,04,52,14.50
2009,06,02,04,53,14.50
2009,06,02,04,54,14.50
2009,06,02,04,55,14.50
2009,06,02,04,56,14.50
2009,06,02,04,57,14.50
2009,06,02,04,58,14.50
2009,06,02,04,59,14.40
2009,06,02,05,00,14.40
2009,06,02,05,01,14.40
2009,06,02,05,02,14.40
2009,06,02,05,03,14.40
2009,06,02,05,04,14.40
2009,06,02,05,05,14.50
2009,06,02,05,06,14.50
2009,06,02,05,07,14.50
2009,06,02,05,08,14.60
2009,06,02,05,09,14.60
2009,06,02,05,10,14.70
2009,06,02,05,11,14.70
2009,06,02,05,12,14.70
2009,06,02,05,13,14.80
2009,06,02,05,14,14.80
2009,06,02,05,15,14.80
2009,06,02,05,16,14.80
2009,06,02,05,17,14.90
2009,06,02,05,18,14.90
2009,06,02,05,19,14.90
2009,06,02,05,20,15.00
2009,06,02,05,21,15.00
2009,06,02,05,22,15.10
2009,06,02,05,23,15.10
2009,06,02,05,24,15.10
2009,06,02,05,25,15.10
2009,06,02,05,26,15.10
2009,06,02,05,27,15.10
2009,06,02,05,28,15.10
2009,06,02,05,29,15.10
2009,06,02,05,30,15.00
2009,06,02,05,31,15.00
2009,06,02,05,32,15.00
2009,06,02,05,33,15.00
2009,06,02,05,34,14.90
2009,06,02,05,35,14.90
2009,06,02,05,36,14.90
2009,06,02,05,37,14.80
2009,06,02,05,38,14.80
2009,06,02,05,39,14.80
2009,06,02,05,40,14.70
2009,06,02,05,41,14.70
2009,06,02,05,42,14.60
2009,06,02,05,43,14.50
2009,06,02,05,44,14.50
2009,06,02,05,45,14.40
2009,06,02,05,46,14.40
2009,06,02,05,47,14.40
2009,06,02,05,48,14.30
2009,06,02,05,49,14.30
2009,06,02,05,50,14.30
2009,06,02,05,51,14.20
2009,06,02,05,52,14.20
2009,06,02,05,53,14.20
2009,06,02,05,54,14.20
2009,06,02,05,55,14.20
2009,06,02,05,56,14.30
2009,06,02,05,57,14.30
2009,06,02,05,58,14.20
2009,06,02,05,59,14.20
2009,06,02,06,00,14.20
2009,06,02,06,01,14.30
2009,06,02,06,02,14.30
2009,06,02,06,03,14.30
2009,06,02,06,04,14.30
2009,06,02,06,05,14.30
2009,06,02,06,06,14.30
2009,06,02,06,07,14.30
2009,06,02,06,08,14.30
2009,06,02,06,09,14.40
2009,06,02,06,10,14.40
2009,06,02,06,11,14.50
2009,06,02,06,12,14.70
2009,06,02,06,13,14.80
2009,06,02,06,14,14.90
2009,06,02,06,15,14.90
2009,06,02,06,16,14.90
2009,06,02,06,17,15.00
2009,06,02,06,18,15.00
2009,06,02,06,19,15.00
2009,06,02,06,20,15.00
2009,06,02,06,21,15.10
2009,06,02,06,22,15.10
2009,06,02,06,23,15.20
2009,06,02,06,24,15.20
2009,06,02,06,25,15.30
2009,06,02,06,26,15.30
2009,06,02,06,27,15.30
2009,06,02,06,28,15.30
2009,06,02,06,29,15.30
2009,06,02,06,30,15.40
2009,06,02,06,31,15.40
2009,06,02,06,32,15.50
2009,06,02,06,33,15.50
2009,06,02,06,34,15.50
2009,06,02,06,35,15.60
2009,06,02,06,36,15.60
2009,06,02,06,37,15.60
2009,06,02,06,38,15.70
2009,06,02,06,39,15.70
2009,06,02,06,40,15.70
2009,06,02,06,41,15.70
2009,06,02,06,42,15.70
2009,06,02,06,43,15.70
2009,06,02,06,44,15.70
2009,06,02,06,45,15.80
2009,06,02,06,46,15.80
2009,06,02,06,47,15.80
2009,06,02,06,48,15.80
2009,06,02,06,49,15.90
2009,06,02,06,50,15.90
2009,06,02,06,51,16.10
2009,06,02,06,52,16.10
2009,06,02,06,53,16.20
2009,06,02,06,54,16.30
2009,06,02,06,55,16.40
2009,06,02,06,56,16.50
2009,06,02,06,57,16.60
2009,06,02,06,58,16.70
2009,06,02,06,59,16.80
2009,06,02,07,00,16.90
2009,06,02,07,01,16.90
2009,06,02,07,02,16.90
2009,06,02,07,03,17.00
2009,06,02,07,04,17.00
2009,06,02,07,05,17.00
2009,06,02,07,06,17.10
2009,06,02,07,07,17.10
2009,06,02,07,08,17.10
2009,06,02,07,09,17.10
2009,06,02,07,10,17.20
2009,06,02,07,11,17.20
2009,06,02,07,12,17.30
2009,06,02,07,13,17.30
2009,06,02,07,14,17.30
2009,06,02,07,15,17.40
2009,06,02,07,16,17.40
2009,06,02,07,17,17.40
2009,06,02,07,18,17.40
2009,06,02,07,19,17.50
2009,06,02,07,20,17.50
2009,06,02,07,21,17.50
2009,06,02,07,22,17.50
2009,06,02,07,23,17.60
2009,06,02,07,24,17.70
2009,06,02,07,25,17.70
2009,06,02,07,26,17.80
2009,06,02,07,27,17.90
2009,06,02,07,28,17.90
2009,06,02,07,29,18.00
2009,06,02,07,30,18.10
2009,06,02,07,31,18.20
2009,06,02,07,32,18.20
2009,06,02,07,33,18.20
2009,06,02,07,34,18.30
2009,06,02,07,35,18.30
2009,06,02,07,36,18.40
2009,06,02,07,37,18.40
2009,06,02,07,38,18.50
2009,06,02,07,39,18.50
2009,06,02,07,40,18.60
2009,06,02,07,41,18.60
2009,06,02,07,42,18.60
2009,06,02,07,43,18.70
2009,06,02,07,44,18.70
2009,06,02,07,45,18.70
2009,06,02,07,46,18.80
2009,06,02,07,47,18.80
2009,06,02,07,48,18.80
2009,06,02,07,49,18.90
2009,06,02,07,50,18.90
2009,06,02,07,51,18.90
2009,06,02,07,52,18.90
2009,06,02,07,53,18.90
2009,06,02,07,54,19.00
2009,06,02,07,55,19.10
2009,06,02,07,56,19.10
2009,06,02,07,57,19.10
2009,06,02,07,58,19.10
2009,06,02,07,59,19.10
2009,06,02,08,00,19.20
2009,06,02,08,01,19.20
2009,06,02,08,02,19.20
2009,06,02,08,03,19.30
2009,06,02,08,04,19.30
2009,06,02,08,05,19.30
2009,06,02,08,06,19.30
2009,06,02,08,07,19.30
2009,06,02,08,08,19.30
2009,06,02,08,09,19.30
2009,06,02,08,10,19.30
2009,06,02,08,11,19.30
2009,06,02,08,12,19.20
2009,06,02,08,13,19.10
2009,06,02,08,14,19.10
2009,06,02,08,15,19.10
2009,06,02,08,16,19.10
2009,06,02,08,17,19.20
2009,06,02,08,18,19.20
2009,06,02,08,19,19.20
2009,06,02,08,20,19.30
2009,06,02,08,21,19.30
2009,06,02,08,22,19.30
2009,06,02,08,23,19.30
2009,06,02,08,24,19.30
2009,06,02,08,25,19.30
2009,06,02,08,26,19.40
2009,06,02,08,27,19.40
2009,06,02,08,28,19.40
2009,06,02,08,29,19.30
2009,06,02,08,30,19.30
2009,06,02,08,31,19.30
2009,06,02,08,32,19.30
2009,06,02,08,33,19.30
2009,06,02,08,34,19.20
2009,06,02,08,35,19.20
2009,06,02,08,36,19.10
2009,06,02,08,37,19.10
2009,06,02,08,38,19.10
2009,06,02,08,39,19.10
2009,06,02,08,40,19.10
2009,06,02,08,41,19.10
2009,06,02,08,42,19.10
2009,06,02,08,43,19.00
2009,06,02,08,44,18.90
2009,06,02,08,45,19.00
2009,06,02,08,46,19.10
2009,06,02,08,47,19.10
2009,06,02,08,48,19.10
2009,06,02,08,49,19.10
2009,06,02,08,50,19.20
2009,06,02,08,51,19.20
2009,06,02,08,52,19.20
2009,06,02,08,53,19.30
2009,06,02,08,54,19.30
2009,06,02,08,55,19.30
2009,06,02,08,56,19.30
2009,06,02,08,57,19.40
2009,06,02,08,58,19.40
2009,06,02,08,59,19.50
2009,06,02,09,00,19.50
2009,06,02,09,01,19.50
2009,06,02,09,02,19.50
2009,06,02,09,03,19.50
2009,06,02,09,04,19.50
2009,06,02,09,05,19.60
2009,06,02,09,06,19.60
2009,06,02,09,07,19.60
2009,06,02,09,08,19.60
2009,06,02,09,09,19.60
2009,06,02,09,10,19.70
2009,06,02,09,11,19.80
2009,06,02,09,12,19.80
2009,06,02,09,13,19.90
2009,06,02,09,14,19.90
2009,06,02,09,15,20.10
2009,06,02,09,16,20.20
2009,06,02,09,17,20.40
2009,06,02,09,18,20.50
2009,06,02,09,19,20.70
2009,06,02,09,20,20.80
2009,06,02,09,21,20.90
2009,06,02,09,22,21.00
2009,06,02,09,23,21.20
2009,06,02,09,24,21.30
2009,06,02,09,25,21.30
2009,06,02,09,26,21.50
2009,06,02,09,27,21.60
2009,06,02,09,28,21.70
2009,06,02,09,29,21.90
2009,06,02,09,30,22.00
2009,06,02,09,31,22.00
2009,06,02,09,32,22.00
2009,06,02,09,33,22.00
2009,06,02,09,34,22.10
2009,06,02,09,35,22.00
2009,06,02,09,36,22.00
2009,06,02,09,37,22.10
2009,06,02,09,38,22.10
2009,06,02,09,39,22.20
2009,06,02,09,40,22.30
2009,06,02,09,41,22.40
2009,06,02,09,42,22.50
2009,06,02,09,43,22.60
2009,06,02,09,44,22.70
2009,06,02,09,45,22.80
2009,06,02,09,46,22.90
2009,06,02,09,47,22.90
2009,06,02,09,48,22.90
2009,06,02,09,49,23.00
2009,06,02,09,50,23.10
2009,06,02,09,51,23.10
2009,06,02,09,52,23.20
2009,06,02,09,53,23.30
2009,06,02,09,54,23.30
2009,06,02,09,55,23.30
2009,06,02,09,56,23.30
2009,06,02,09,57,23.30
2009,06,02,09,58,23.30
2009,06,02,09,59,23.30
2009,06,02,10,00,23.30
2009,06,02,10,01,23.30
2009,06,02,10,02,23.30
2009,06,02,10,03,23.40
2009,06,02,10,04,23.40
2009,06,02,10,05,23.40
2009,06,02,10,06,23.30
2009,06,02,10,07,23.30
2009,06,02,10,08,23.40
2009,06,02,10,09,23.40
2009,06,02,10,10,23.40
2009,06,02,10,11,23.40
2009,06,02,10,12,23.40
2009,06,02,10,13,23.40
2009,06,02,10,14,23.40
2009,06,02,10,15,23.40
2009,06,02,10,16,23.40
2009,06,02,10,17,23.50
2009,06,02,10,18,23.60
2009,06,02,10,19,23.70
2009,06,02,10,20,23.70
2009,06,02,10,21,23.70
2009,06,02,10,22,23.70
2009,06,02,10,23,23.70
2009,06,02,10,24,23.70
2009,06,02,10,25,23.80
2009,06,02,10,26,24.00
2009,06,02,10,27,24.10
2009,06,02,10,28,24.10
2009,06,02,10,29,24.10
2009,06,02,10,30,24.10
2009,06,02,10,31,24.10
2009,06,02,10,32,24.10
2009,06,02,10,33,24.10
2009,06,02,10,34,24.10
2009,06,02,10,35,24.10
2009,06,02,10,36,24.20
2009,06,02,10,37,24.20
2009,06,02,10,38,24.40
2009,06,02,10,39,24.50
2009,06,02,10,40,24.60
2009,06,02,10,41,24.70
2009,06,02,10,42,24.80
2009,06,02,10,43,24.80
2009,06,02,10,44,24.80
2009,06,02,10,45,24.80
2009,06,02,10,46,24.80
2009,06,02,10,47,24.90
2009,06,02,10,48,24.90
2009,06,02,10,49,24.90
2009,06,02,10,50,24.90
2009,06,02,10,51,24.90
2009,06,02,10,52,24.80
2009,06,02,10,53,24.90
2009,06,02,10,54,24.90
2009,06,02,10,55,24.90
2009,06,02,10,56,25.00
2009,06,02,10,57,25.10
2009,06,02,10,58,25.20
2009,06,02,10,59,25.10
2009,06,02,11,00,25.10
2009,06,02,11,01,25.20
2009,06,02,11,02,25.30
2009,06,02,11,03,25.40
2009,06,02,11,04,25.40
2009,06,02,11,05,25.40
2009,06,02,11,06,25.40
2009,06,02,11,07,25.40
2009,06,02,11,08,25.50
2009,06,02,11,09,25.50
2009,06,02,11,10,25.50
2009,06,02,11,11,25.50
2009,06,02,11,12,25.50
2009,06,02,11,13,25.50
2009,06,02,11,14,25.60
2009,06,02,11,15,25.70
2009,06,02,11,16,25.80
2009,06,02,11,17,26.00
2009,06,02,11,18,26.10
2009,06,02,11,19,26.10
2009,06,02,11,20,26.10
2009,06,02,11,21,26.10
2009,06,02,11,22,26.10
2009,06,02,11,23,26.10
2009,06,02,11,24,26.10
2009,06,02,11,25,26.10
2009,06,02,11,26,26.10
2009,06,02,11,27,26.10
2009,06,02,11,28,26.00
2009,06,02,11,29,26.00
2009,06,02,11,30,25.90
2009,06,02,11,31,25.80
2009,06,02,11,32,25.70
2009,06,02,11,33,25.70
2009,06,02,11,34,25.60
2009,06,02,11,35,25.60
2009,06,02,11,36,25.70
2009,06,02,11,37,25.70
2009,06,02,11,38,25.80
2009,06,02,11,39,25.90
2009,06,02,11,40,25.90
2009,06,02,11,41,26.00
2009,06,02,11,42,26.00
2009,06,02,11,43,26.00
2009,06,02,11,44,26.00
2009,06,02,11,45,26.00
2009,06,02,11,46,26.00
2009,06,02,11,47,26.00
2009,06,02,11,48,26.00
2009,06,02,11,49,26.00
2009,06,02,11,50,26.00
2009,06,02,11,51,26.00
2009,06,02,11,52,26.00
2009,06,02,11,53,26.10
2009,06,02,11,54,26.10
2009,06,02,11,55,26.20
2009,06,02,11,56,26.20
2009,06,02,11,57,26.20
2009,06,02,11,58,26.20
2009,06,02,11,59,26.20
2009,06,02,12,00,26.20
2009,06,02,12,01,26.20
2009,06,02,12,02,26.20
2009,06,02,12,03,26.20
2009,06,02,12,04,26.10
2009,06,02,12,05,26.10
2009,06,02,12,06,26.00
2009,06,02,12,07,26.10
2009,06,02,12,08,26.20
2009,06,02,12,09,26.30
2009,06,02,12,10,26.30
2009,06,02,12,11,26.30
2009,06,02,12,12,26.30
2009,06,02,12,13,26.30
2009,06,02,12,14,26.30
2009,06,02,12,15,26.30
2009,06,02,12,16,26.40
2009,06,02,12,17,26.40
2009,06,02,12,18,26.40
2009,06,02,12,19,26.50
2009,06,02,12,20,26.60
2009,06,02,12,21,26.60
2009,06,02,12,22,26.70
2009,06,02,12,23,26.70
2009,06,02,12,24,26.80
2009,06,02,12,25,26.90
2009,06,02,12,26,27.00
2009,06,02,12,27,27.10
2009,06,02,12,28,27.20
2009,06,02,12,29,27.20
2009,06,02,12,30,27.30
2009,06,02,12,31,27.30
2009,06,02,12,32,27.40
2009,06,02,12,33,27.30
2009,06,02,12,34,27.30
2009,06,02,12,35,27.30
2009,06,02,12,36,27.30
2009,06,02,12,37,27.40
2009,06,02,12,38,27.50
2009,06,02,12,39,27.60
2009,06,02,12,40,27.80
2009,06,02,12,41,27.90
2009,06,02,12,42,27.90
2009,06,02,12,43,27.80
2009,06,02,12,44,27.80
2009,06,02,12,45,27.70
2009,06,02,12,46,27.50
2009,06,02,12,47,27.40
2009,06,02,12,48,27.30
2009,06,02,12,49,27.20
2009,06,02,12,50,27.20
2009,06,02,12,51,27.10
2009,06,02,12,52,27.00
2009,06,02,12,53,26.90
2009,06,02,12,54,26.90
2009,06,02,12,55,27.10
2009,06,02,12,56,27.20
2009,06,02,12,57,27.20
2009,06,02,12,58,27.30
2009,06,02,12,59,27.30
2009,06,02,13,00,27.30
2009,06,02,13,01,27.40
2009,06,02,13,02,27.40
2009,06,02,13,03,27.50
2009,06,02,13,04,27.60
2009,06,02,13,05,27.60
2009,06,02,13,06,27.80
2009,06,02,13,07,28.00
2009,06,02,13,08,28.10
2009,06,02,13,09,28.10
2009,06,02,13,10,28.10
2009,06,02,13,11,28.20
2009,06,02,13,12,28.40
2009,06,02,13,13,28.50
2009,06,02,13,14,28.60
2009,06,02,13,15,28.70
2009,06,02,13,16,28.80
2009,06,02,13,17,28.70
2009,06,02,13,18,28.70
2009,06,02,13,19,28.70
2009,06,02,13,20,28.60
2009,06,02,13,21,28.60
2009,06,02,13,22,28.50
2009,06,02,13,23,28.40
2009,06,02,13,24,28.50
2009,06,02,13,25,28.60
2009,06,02,13,26,28.50
2009,06,02,13,27,28.40
2009,06,02,13,28,28.30
2009,06,02,13,29,28.40
2009,06,02,13,30,28.60
2009,06,02,13,31,28.50
2009,06,02,13,32,28.40
2009,06,02,13,33,28.30
2009,06,02,13,34,28.20
2009,06,02,13,35,28.10
2009,06,02,13,36,28.20
2009,06,02,13,37,28.20
2009,06,02,13,38,28.20
2009,06,02,13,39,28.00
2009,06,02,13,40,28.10
2009,06,02,13,41,28.10
2009,06,02,13,42,28.10
2009,06,02,13,43,28.00
2009,06,02,13,44,28.10
2009,06,02,13,45,28.30
2009,06,02,13,46,28.50
2009,06,02,13,47,28.80
2009,06,02,13,48,29.00
2009,06,02,13,49,29.10
2009,06,02,13,50,29.10
2009,06,02,13,51,29.20
2009,06,02,13,52,29.10
2009,06,02,13,53,29.10
2009,06,02,13,54,29.10
2009,06,02,13,55,29.10
2009,06,02,13,56,29.20
2009,06,02,13,57,29.20
2009,06,02,13,58,29.20
2009,06,02,13,59,29.20
2009,06,02,14,00,29.20
2009,06,02,14,01,29.30
2009,06,02,14,02,29.30
2009,06,02,14,03,29.20
2009,06,02,14,04,29.10
2009,06,02,14,05,29.00
2009,06,02,14,06,28.90
2009,06,02,14,07,28.80
2009,06,02,14,08,28.80
2009,06,02,14,09,28.80
2009,06,02,14,10,28.90
2009,06,02,14,11,28.90
2009,06,02,14,12,28.90
2009,06,02,14,13,28.90
2009,06,02,14,14,28.90
2009,06,02,14,15,28.90
2009,06,02,14,16,28.80
2009,06,02,14,17,28.80
2009,06,02,14,18,28.70
2009,06,02,14,19,28.80
2009,06,02,14,20,28.90
2009,06,02,14,21,28.80
2009,06,02,14,22,28.80
2009,06,02,14,23,28.90
2009,06,02,14,24,28.90
2009,06,02,14,25,28.90
2009,06,02,14,26,28.90
2009,06,02,14,27,28.90
2009,06,02,14,28,28.80
2009,06,02,14,29,28.60
2009,06,02,14,30,28.40
2009,06,02,14,31,28.30
2009,06,02,14,32,28.30
2009,06,02,14,33,28.20
2009,06,02,14,34,28.10
2009,06,02,14,35,27.90
2009,06,02,14,36,27.90
2009,06,02,14,37,27.80
2009,06,02,14,38,27.90
2009,06,02,14,39,27.90
2009,06,02,14,40,28.00
2009,06,02,14,41,28.20
2009,06,02,14,42,28.40
2009,06,02,14,43,28.50
2009,06,02,14,44,28.70
2009,06,02,14,45,28.80
2009,06,02,14,46,29.00
2009,06,02,14,47,29.10
2009,06,02,14,48,29.20
2009,06,02,14,49,29.00
2009,06,02,14,50,28.90
2009,06,02,14,51,28.80
2009,06,02,14,52,28.60
2009,06,02,14,53,28.40
2009,06,02,14,54,28.30
2009,06,02,14,55,28.20
2009,06,02,14,56,28.30
2009,06,02,14,57,28.30
2009,06,02,14,58,28.40
2009,06,02,14,59,28.40
2009,06,02,15,00,28.30
2009,06,02,15,01,28.20
2009,06,02,15,02,28.20
2009,06,02,15,03,28.20
2009,06,02,15,04,28.20
2009,06,02,15,05,28.20
2009,06,02,15,06,28.20
2009,06,02,15,07,28.30
2009,06,02,15,08,28.40
2009,06,02,15,09,28.40
2009,06,02,15,10,28.40
2009,06,02,15,11,28.60
2009,06,02,15,12,28.70
2009,06,02,15,13,28.80
2009,06,02,15,14,28.90
2009,06,02,15,15,28.90
2009,06,02,15,16,28.90
2009,06,02,15,17,28.80
2009,06,02,15,18,28.90
2009,06,02,15,19,28.90
2009,06,02,15,20,28.90
2009,06,02,15,21,29.00
2009,06,02,15,22,29.10
2009,06,02,15,23,29.00
2009,06,02,15,24,28.90
2009,06,02,15,25,28.80
2009,06,02,15,26,28.80
2009,06,02,15,27,28.90
2009,06,02,15,28,28.90
2009,06,02,15,29,29.10
2009,06,02,15,30,29.20
2009,06,02,15,31,29.30
2009,06,02,15,32,29.50
2009,06,02,15,33,29.60
2009,06,02,15,34,29.60
2009,06,02,15,35,29.40
2009,06,02,15,36,29.40
2009,06,02,15,37,29.40
2009,06,02,15,38,29.50
2009,06,02,15,39,29.60
2009,06,02,15,40,29.60
2009,06,02,15,41,29.60
2009,06,02,15,42,29.50
2009,06,02,15,43,29.40
2009,06,02,15,44,29.50
2009,06,02,15,45,29.50
2009,06,02,15,46,29.50
2009,06,02,15,47,29.60
2009,06,02,15,48,29.60
2009,06,02,15,49,29.50
2009,06,02,15,50,29.30
2009,06,02,15,51,29.30
2009,06,02,15,52,29.20
2009,06,02,15,53,29.10
2009,06,02,15,54,29.20
2009,06,02,15,55,29.20
2009,06,02,15,56,29.20
2009,06,02,15,57,29.30
2009,06,02,15,58,29.30
2009,06,02,15,59,29.30
2009,06,02,16,00,29.30
2009,06,02,16,01,29.20
2009,06,02,16,02,29.10
2009,06,02,16,03,28.90
2009,06,02,16,04,28.90
2009,06,02,16,05,28.70
2009,06,02,16,06,28.60
2009,06,02,16,07,28.60
2009,06,02,16,08,28.60
2009,06,02,16,09,28.60
2009,06,02,16,10,28.60
2009,06,02,16,11,28.70
2009,06,02,16,12,28.80
2009,06,02,16,13,28.90
2009,06,02,16,14,28.90
2009,06,02,16,15,28.90
2009,06,02,16,16,29.00
2009,06,02,16,17,29.10
2009,06,02,16,18,29.00
2009,06,02,16,19,28.90
2009,06,02,16,20,28.80
2009,06,02,16,21,28.80
2009,06,02,16,22,28.80
2009,06,02,16,23,28.80
2009,06,02,16,24,28.90
2009,06,02,16,25,28.90
2009,06,02,16,26,28.90
2009,06,02,16,27,28.90
2009,06,02,16,28,28.90
2009,06,02,16,29,28.80
2009,06,02,16,30,28.80
2009,06,02,16,31,28.80
2009,06,02,16,32,28.70
2009,06,02,16,33,28.80
2009,06,02,16,34,28.80
2009,06,02,16,35,28.80
2009,06,02,16,36,28.80
2009,06,02,16,37,28.80
2009,06,02,16,38,28.90
2009,06,02,16,39,28.90
2009,06,02,16,40,28.90
2009,06,02,16,41,28.90
2009,06,02,16,42,28.90
2009,06,02,16,43,28.90
2009,06,02,16,44,28.90
2009,06,02,16,45,29.00
2009,06,02,16,46,29.10
2009,06,02,16,47,29.10
2009,06,02,16,48,29.10
2009,06,02,16,49,29.20
2009,06,02,16,50,29.20
2009,06,02,16,51,29.20
2009,06,02,16,52,29.20
2009,06,02,16,53,29.30
2009,06,02,16,54,29.10
2009,06,02,16,55,29.00
2009,06,02,16,56,28.90
2009,06,02,16,57,28.90
2009,06,02,16,58,28.90
2009,06,02,16,59,28.80
2009,06,02,17,00,28.70
2009,06,02,17,01,28.70
2009,06,02,17,02,28.70
2009,06,02,17,03,28.60
2009,06,02,17,04,28.60
2009,06,02,17,05,28.60
2009,06,02,17,06,28.70
2009,06,02,17,07,28.70
2009,06,02,17,08,28.80
2009,06,02,17,09,28.80
2009,06,02,17,10,28.90
2009,06,02,17,11,28.90
2009,06,02,17,12,28.90
2009,06,02,17,13,28.90
2009,06,02,17,14,28.90
2009,06,02,17,15,28.90
2009,06,02,17,16,29.00
2009,06,02,17,17,29.10
2009,06,02,17,18,29.20
2009,06,02,17,19,29.10